Regional Weather Roundup
Issued by NWS Kansas City/Pleasant Hill, MO

Home | Current Version | Previous Version | Graphics & Text | Print | Product List | Glossary Off
Versions: 1 2 3 4 5 6 7 8 9 10 11 12 13 14 15 16 17 18 19 20 21 22 23 24 25 26 27

000
ASUS43 KEAX 210210
RWREAX

WEATHER ROUNDUP FOR EASTERN KANSAS AND NORTHWEST MISSOURI
NATIONAL WEATHER SERVICE KANSAS CITY/PLEASANT HILL MO
900 PM CDT FRI APR 20 2018

KSZ040-057-103>105-MOZ028-029-037-043-210300-
...KANSAS CITY METROPOLITAN AREA...

CITY           SKY/WX    TMP DP  RH WIND       PRES   REMARKS
K.C. INTL      CLOUDY    56  25  30 E12       30.26F
K.C. DOWNTOWN  CLOUDY    60  26  27 E9        30.24F
LEES SUMMIT    MOCLDY    57  26  30 E9        30.26S
OLATHE - IXD   CLOUDY    58  28  32 E12G20    30.23F
OLATHE - OJC   CLOUDY    57  27  31 E10       30.23F
LAWRENCE       CLOUDY    58  29  33 NE10G18   30.22F

$$

MOZ001>008-011>017-020>025-030>033-038>040-044>046-053-054-210300-
...NORTHERN AND CENTRAL MISSOURI...

CITY           SKY/WX    TMP DP  RH WIND       PRES   REMARKS
ST. JOSEPH     CLOUDY    57  26  30 E7        30.29S
MOSBY          CLOUDY    55  23  28 E5        30.28S
WARRENSBURG    CLOUDY    54  27  35 NE5       30.27R
WHITEMAN AFB   MOCLDY    52  25  35 E7        30.24R
CLINTON        CLOUDY    54  28  37 E8        30.26R
SEDALIA        CLOUDY    56  22  26 E7        30.28R
WARSAW         NOT AVBL
CHILLICOTHE      N/A     56  19  23 E5        30.33R
KIRKSVILLE     CLOUDY    50  25  37 NE6       30.36R

$$

MOZ041-047>049-056>058-063>065-088>090-097-210300-
...EASTERN AND SOUTHERN MISSOURI...

CITY           SKY/WX    TMP DP  RH WIND       PRES   REMARKS
ST. LOUIS INTL MOCLDY    53  25  33 E8        30.34S
SPIRIT OF STL  CLOUDY    50  29  44 CALM      30.33R
COLUMBIA       PTCLDY    55  20  25 E9        30.30R
JEFFERSON CITY PTCLDY    58  20  22 E9        30.29R
OSAGE BEACH    PTCLDY    58  20  22 E12       30.27R
SPRINGFIELD    CLOUDY    58  19  22 E10       30.21S
BRANSON        MOCLDY    55  19  24 E12       30.22S
JOPLIN         CLOUDY    60  28  29 E12       30.16F
WEST PLAINS    CLOUDY    55  17  22 SE7       30.28R

$$

IAZ060-094-KSZ022-034>040-054-083-096-NEZ052-066-093-210300-
...KANSAS...SOUTHEAST NEBRASKA AND IOWA...

CITY           SKY/WX    TMP DP  RH WIND       PRES   REMARKS
TOPEKA         MOCLDY    58  29  33 NE8       30.23S
MANHATTAN      MOCLDY    57  28  33 NE10      30.21S
EMPORIA        PTCLDY    56  29  35 E9        30.17S
CHANUTE        CLOUDY    60  30  32 E8        30.16S
WICHITA        LGT RAIN  60  30  32 E12       30.10F
OMAHA          CLOUDY    57  28  33 E10       30.31S
LINCOLN        CLOUDY    50  30  46 NE9       30.30R
FALLS CITY     CLOUDY    53  26  35 E6        30.26S
LAMONI         CLOUDY    52  27  38 E6        30.33S
DES MOINES     CLOUDY    56  25  30 E6        30.37R

$$





USA.gov is the U.S. government's official web portal to all federal, state and local government web resources and services.